Stations météo

réclame
Mon MeteoGroup
Volkel, Pays-Bas (6375): Température de l'air & dewpoint: 05.08.2020 09:00:00 - 11.08.2020 09:00:00 (CEST)Volkel, Pays-Bas (6375): Température de l'air 5cm: 05.08.2020 09:00:00 - 11.08.2020 09:00:00 (CEST)Volkel, Pays-Bas (6375): Vitesse du vent & gusts: 05.08.2020 09:00:00 - 11.08.2020 09:00:00 (CEST)Volkel, Pays-Bas (6375): Direction du vent: 05.08.2020 09:00:00 - 11.08.2020 09:00:00 (CEST)Volkel, Pays-Bas (6375): reduced air pressure: 05.08.2020 09:00:00 - 11.08.2020 09:00:00 (CEST)Volkel, Pays-Bas (6375): visibility: 05.08.2020 09:00:00 - 11.08.2020 09:00:00 (CEST)Volkel, Pays-Bas (6375): Quantités de précipitations: 05.08.2020 09:00:00 - 11.08.2020 09:00:00 (CEST)
Date & Time tt [°C] td [°C] tt 5cm [°C] ff [km/h] ff [knt] fx [km/h] fx [knt] dd ppp [hPa] vv [km] rr [mm]
11.08.2020 09:00:00 - - - - - - - - - - -
11.08.2020 08:00:00 - - - - - - - - - - -
11.08.2020 07:00:00 - - - - - - - - - - -
11.08.2020 06:00:00 - - - - - - - - - - -
11.08.2020 05:00:00 - - - - - - - - - - -
11.08.2020 04:00:00 - - - - - - - - - - -
11.08.2020 03:00:00 - - - - - - - - - - -
11.08.2020 02:00:00 - - - - - - - - - - -
11.08.2020 01:00:00 - - - - - - - - - - -
11.08.2020 00:00:00 - - - - - - - - - - -
10.08.2020 23:00:00 - - - - - - - - - - -
10.08.2020 22:00:00 - - - - - - - - - - -
10.08.2020 21:00:00 - - - - - - - - - - -
10.08.2020 20:00:00 - - - - - - - - - - -
10.08.2020 19:00:00 - - - - - - - - - - -
10.08.2020 18:00:00 - - - - - - - - - - -
10.08.2020 17:00:00 - - - - - - - - - - -
10.08.2020 16:00:00 - - - - - - - - - - -
10.08.2020 15:00:00 - - - - - - - - - - -
10.08.2020 14:00:00 - - - - - - - - - - -
10.08.2020 13:00:00 - - - - - - - - - - -
10.08.2020 12:00:00 - - - - - - - - - - -
10.08.2020 11:00:00 - - - - - - - - - - -
10.08.2020 10:00:00 - - - - - - - - - - -
10.08.2020 09:00:00 - - - - - - - - - - -
10.08.2020 08:00:00 21,0 17,0 21,0 5 3 - - NE 1015,0 10 -
10.08.2020 07:00:00 19,4 16,9 17,8 8 4 11 6 NE 1014,8 10 0,0
10.08.2020 06:00:00 18,1 16,3 16,4 5 3 11 6 ENE 1015,1 10 0,0
10.08.2020 05:00:00 18,7 16,5 16,2 5 3 11 6 NE 1015,4 10 0,0
10.08.2020 04:00:00 18,9 16,7 17,2 5 3 11 6 ENE 1015,6 10 0,0
10.08.2020 03:00:00 20,6 17,1 19,0 8 4 14 8 E 1015,9 10 0,0
10.08.2020 02:00:00 21,1 17,2 19,4 11 6 14 8 NE 1015,5 10 0,0
10.08.2020 01:00:00 21,1 17,0 18,9 8 4 14 8 NE 1015,7 10 0,0
10.08.2020 00:00:00 22,3 16,6 19,8 5 3 11 6 ENE 1015,4 10 0,0
09.08.2020 23:00:00 25,0 16,4 23,8 8 4 29 16 E 1015,3 10 0,0
09.08.2020 22:00:00 27,5 16,0 27,0 26 14 36 19 E 1015,5 10 0,0
09.08.2020 21:00:00 29,7 18,1 29,0 16 9 25 14 NE 1015,0 10 0,0
09.08.2020 20:00:00 31,5 17,0 31,6 9 5 18 10 NE 1014,9 10 0,0
09.08.2020 19:00:00 33,0 15,8 34,2 11 6 18 10 NE 1014,5 10 0,0
09.08.2020 18:00:00 33,6 15,4 36,1 11 6 18 10 NNE 1014,8 10 0,0
09.08.2020 17:00:00 35,1 13,4 37,8 8 4 14 8 - 1015,5 10 0,0
09.08.2020 16:00:00 34,7 12,6 38,1 8 4 14 8 ESE 1016,0 10 0,0
09.08.2020 15:00:00 33,3 15,6 37,8 9 5 18 10 - 1016,5 10 0,0
09.08.2020 14:00:00 32,8 16,3 37,2 5 3 18 10 ESE 1016,9 10 0,0
09.08.2020 13:00:00 32,2 17,2 35,7 9 5 18 10 ENE 1017,1 10 0,0
09.08.2020 12:00:00 30,0 16,8 34,4 8 4 18 10 NNE 1017,6 10 0,0
09.08.2020 11:00:00 28,8 17,4 31,7 5 3 14 8 N 1017,8 10 0,0
09.08.2020 10:00:00 26,2 17,1 28,1 11 6 14 8 ENE 1017,8 10 0,0
09.08.2020 09:00:00 23,1 17,2 23,2 2 1 11 6 - 1017,8 10 0,0
09.08.2020 08:00:00 22,6 16,4 21,8 8 4 14 8 N 1017,6 10 0,0
09.08.2020 07:00:00 22,1 15,9 21,3 8 4 11 6 NNE 1017,8 10 0,0
09.08.2020 06:00:00 21,9 15,6 20,4 8 4 11 6 N 1017,8 10 0,0
09.08.2020 05:00:00 21,5 16,2 18,6 5 3 11 6 N 1017,9 10 0,0
09.08.2020 04:00:00 21,3 16,4 17,7 5 3 7 4 NNE 1017,9 10 0,0
09.08.2020 03:00:00 22,4 16,2 19,2 5 3 14 8 NE 1018,0 10 0,0
09.08.2020 02:00:00 23,9 16,2 22,4 9 5 18 10 NE 1018,2 10 0,0
09.08.2020 01:00:00 24,0 16,0 22,4 11 6 18 10 NE 1018,5 10 0,0
09.08.2020 00:00:00 24,9 15,2 23,7 8 4 14 8 NNE 1018,5 10 0,0
08.08.2020 23:00:00 25,8 14,6 24,2 5 3 14 8 NNE 1018,5 10 0,0
08.08.2020 22:00:00 27,1 13,9 25,3 9 5 14 8 NNE 1018,4 10 0,0
08.08.2020 21:00:00 28,3 12,5 26,8 9 5 14 8 NNE 1018,2 10 0,0
08.08.2020 20:00:00 30,8 12,8 31,0 8 4 14 8 NE 1017,9 10 0,0
08.08.2020 19:00:00 33,9 10,4 35,1 9 5 22 12 NNE 1018,0 10 0,0
08.08.2020 18:00:00 34,8 9,8 36,8 9 5 18 10 NNE 1018,1 10 0,0
08.08.2020 17:00:00 35,0 8,8 37,6 5 3 18 10 - 1018,2 10 0,0
08.08.2020 16:00:00 35,5 10,2 39,0 4 2 18 10 - 1018,6 10 0,0
08.08.2020 15:00:00 35,4 10,7 38,7 9 5 18 10 ESE 1018,8 10 0,0
08.08.2020 14:00:00 34,6 10,2 38,2 11 6 25 14 NE 1019,1 10 0,0
08.08.2020 13:00:00 34,5 10,9 37,5 11 6 22 12 NE 1019,3 10 0,0
08.08.2020 12:00:00 33,4 11,9 36,3 9 5 18 10 ENE 1019,5 10 0,0
08.08.2020 11:00:00 31,1 14,4 33,7 8 4 14 8 ENE 1019,7 10 0,0
08.08.2020 10:00:00 28,4 15,1 30,1 5 3 11 6 E 1019,7 10 0,0
08.08.2020 09:00:00 25,0 14,5 26,1 5 3 7 4 E 1019,8 10 0,0
08.08.2020 08:00:00 21,5 14,6 20,8 5 3 7 4 ENE 1019,5 10 0,0
08.08.2020 07:00:00 16,2 13,1 12,7 4 2 4 2 NE 1019,4 10 0,0
08.08.2020 06:00:00 16,1 12,8 10,6 2 1 4 2 NNE 1019,0 10 0,0
08.08.2020 05:00:00 16,0 13,2 10,8 2 1 4 2 NNE 1018,8 10 0,0
08.08.2020 04:00:00 17,1 13,3 11,4 4 2 4 2 NNE 1018,8 10 0,0
08.08.2020 03:00:00 17,5 13,3 11,7 2 1 4 2 N 1018,8 10 0,0
08.08.2020 02:00:00 18,2 14,0 12,2 2 1 4 2 N 1018,8 10 0,0
08.08.2020 01:00:00 19,3 14,3 13,3 4 2 4 2 N 1018,8 10 0,0
08.08.2020 00:00:00 21,0 13,7 14,4 2 1 4 2 N 1018,9 10 0,0
07.08.2020 23:00:00 21,5 14,3 16,1 2 1 4 2 N 1018,8 10 0,0
07.08.2020 22:00:00 23,6 14,6 18,8 2 1 4 2 N 1018,6 10 0,0
07.08.2020 21:00:00 26,6 14,9 25,2 5 3 7 4 NE 1018,1 10 0,0
07.08.2020 20:00:00 32,3 14,7 32,7 4 2 11 6 - 1018,0 10 0,0
07.08.2020 19:00:00 33,3 10,4 34,4 5 3 18 10 E 1018,1 10 0,0
07.08.2020 18:00:00 33,9 9,7 36,0 8 4 18 10 ENE 1018,4 10 0,0
07.08.2020 17:00:00 34,2 10,5 37,1 8 4 18 10 SSE 1018,4 10 0,0
07.08.2020 16:00:00 33,5 11,3 36,8 11 6 18 10 - 1019,0 10 0,0
07.08.2020 15:00:00 33,5 11,8 37,0 9 5 25 14 - 1019,2 10 0,0
07.08.2020 14:00:00 33,3 12,0 36,8 9 5 18 10 - 1019,6 10 0,0
07.08.2020 13:00:00 32,0 12,8 36,0 8 4 18 10 ESE 1019,9 10 0,0
07.08.2020 12:00:00 31,4 14,2 34,9 9 5 18 10 SE 1020,1 10 0,0
07.08.2020 11:00:00 29,7 15,0 32,4 8 4 14 8 S 1020,3 10 0,0
07.08.2020 10:00:00 27,1 14,5 29,1 8 4 11 6 SE 1020,4 10 0,0
07.08.2020 09:00:00 24,5 13,8 25,2 5 3 11 6 SSE 1020,3 10 0,0
07.08.2020 08:00:00 20,6 13,9 20,5 4 2 7 4 - 1020,2 10 0,0
07.08.2020 07:00:00 17,2 12,9 13,6 5 3 7 4 - 1019,9 10 0,0
07.08.2020 06:00:00 15,7 12,5 10,7 5 3 11 6 E 1019,5 10 0,0
07.08.2020 05:00:00 15,7 13,0 10,7 2 1 4 2 NE 1019,4 10 0,0
07.08.2020 04:00:00 16,5 13,1 12,0 5 3 7 4 ENE 1019,4 10 0,0
07.08.2020 03:00:00 17,4 13,5 12,0 4 2 4 2 NE 1019,6 10 0,0
07.08.2020 02:00:00 18,1 13,6 12,7 5 3 7 4 NE 1019,5 10 0,0
07.08.2020 01:00:00 18,4 13,7 13,1 4 2 7 4 NNE 1019,6 10 0,0
07.08.2020 00:00:00 19,7 13,9 13,9 4 2 7 4 NE 1019,5 10 0,0
06.08.2020 23:00:00 20,7 13,4 15,3 2 1 4 2 NNE 1019,4 10 0,0
06.08.2020 22:00:00 21,6 13,6 17,3 2 1 4 2 NE 1019,2 10 0,0
06.08.2020 21:00:00 25,6 13,3 23,6 4 2 11 6 ENE 1018,7 10 0,0
06.08.2020 20:00:00 29,6 12,9 30,2 4 2 7 4 - 1018,4 10 0,0
06.08.2020 19:00:00 31,1 10,0 32,3 5 3 14 8 - 1018,4 10 0,0
06.08.2020 18:00:00 31,3 10,1 33,7 4 2 14 8 - 1018,5 10 0,0
06.08.2020 17:00:00 31,7 9,8 34,6 9 5 18 10 ESE 1018,7 10 0,0
06.08.2020 16:00:00 31,2 9,5 34,5 9 5 22 12 SE 1018,7 10 0,0
06.08.2020 15:00:00 31,4 9,4 34,6 9 5 22 12 SSW 1018,9 10 0,0
06.08.2020 14:00:00 30,3 9,9 34,3 9 5 25 14 - 1019,1 10 0,0
06.08.2020 13:00:00 29,4 10,3 32,8 13 7 25 14 S 1019,5 10 0,0
06.08.2020 12:00:00 28,1 10,7 31,2 15 8 22 12 SSW 1019,6 10 0,0
06.08.2020 11:00:00 26,1 10,1 29,0 11 6 25 14 S 1019,4 10 0,0
06.08.2020 10:00:00 23,0 12,2 25,5 8 4 11 6 SSE 1019,2 10 0,0
06.08.2020 09:00:00 21,3 12,9 22,8 4 2 7 4 - 1019,1 10 0,0
06.08.2020 08:00:00 18,3 11,8 18,2 4 2 7 4 E 1018,6 10 0,0
06.08.2020 07:00:00 14,9 11,2 10,7 5 3 7 4 SW 1018,2 10 0,0
06.08.2020 06:00:00 13,8 10,4 8,1 4 2 7 4 - 1017,7 10 0,0
06.08.2020 05:00:00 14,8 10,6 8,6 4 2 7 4 - 1017,3 10 0,0
06.08.2020 04:00:00 14,2 11,0 8,9 2 1 7 4 - 1016,8 10 0,0
06.08.2020 03:00:00 15,1 11,0 9,6 2 1 4 2 SSE 1016,4 10 0,0
06.08.2020 02:00:00 15,1 11,5 9,9 2 1 4 2 ENE 1016,3 10 0,0
06.08.2020 01:00:00 16,7 11,5 11,0 4 2 11 6 ENE 1016,1 10 0,0
06.08.2020 00:00:00 17,6 11,0 11,3 0 0 4 2 N 1016,0 10 0,0
05.08.2020 23:00:00 18,4 11,3 12,5 0 0 4 2 N 1015,9 10 0,0
05.08.2020 22:00:00 20,0 10,7 15,1 2 1 7 4 SE 1015,5 10 0,0
05.08.2020 21:00:00 24,0 10,9 21,5 5 3 11 6 S 1015,0 10 0,0
05.08.2020 20:00:00 27,1 8,4 26,5 9 5 18 10 S 1014,8 10 0,0
05.08.2020 19:00:00 29,0 7,3 29,8 13 7 22 12 S 1014,6 10 0,0
05.08.2020 18:00:00 29,1 6,8 31,4 13 7 25 14 SSW 1014,8 10 0,0
05.08.2020 17:00:00 29,5 8,1 32,0 15 8 25 14 S 1014,9 10 0,0
05.08.2020 16:00:00 29,0 7,6 32,1 18 10 32 18 SSW 1015,1 10 0,0
05.08.2020 15:00:00 27,7 7,6 31,5 16 9 32 18 SW 1015,6 10 0,0
05.08.2020 14:00:00 27,1 8,3 30,6 22 12 29 16 S 1015,8 10 0,0
05.08.2020 13:00:00 26,1 9,2 29,5 16 9 32 18 SW 1016,3 10 0,0
05.08.2020 12:00:00 24,7 9,7 27,6 18 10 32 18 SW 1016,6 10 0,0
05.08.2020 11:00:00 23,3 10,5 25,7 21 11 29 16 SW 1016,8 10 0,0
05.08.2020 10:00:00 21,6 10,7 23,0 18 10 29 16 SSW 1017,0 10 0,0
05.08.2020 09:00:00 19,0 10,7 19,8 15 8 22 12 S 1016,6 10 0,0

tt = Température de l'air
td = dewpoint
tt 5cm = Température de l'air 5cm
ff = Vitesse du vent
fx = gusts
dd = Direction du vent
ppp = reduced air pressure
vv = visibility
rr = Quantités de précipitations

stations d'obs. à proximité